JAF9XA EBBR-LGZA

Flight info

Callsign JAF9XA
Flight time 2h 41m
Altitude 35000
Route SOPOK Y863 ROPUV L607 ULNOK DCT VIBOM DCT NOMBO DCT RIDAR DCT RADIZ DCT SIPAL DCT RODON DCT LIMJA DCT PITAS/N0465F330 UN732 KRK UT321 ASTUS
Aircraft B738/M-SDE2E3FGHIRWXY/LB1

Departure

Time 2026-05-01 12:34
Airport Brussels Airport (EBBR)

Arrival

Time 2026-05-01 15:15
Airport Zakynthos International Airport Dionysios Solomos (LGZA)
Time Latitude Longitude Altitude Speed Heading
2026-05-01 12:04 50.90355 4.48820 120 ft 0 kts 335°
2026-05-01 12:19 50.90338 4.48832 115 ft 4 kts 340°
2026-05-01 12:19 50.90313 4.48844 117 ft 4 kts 349°
2026-05-01 12:19 50.90286 4.48848 119 ft 4 kts
2026-05-01 12:19 50.90263 4.48835 118 ft 4 kts 49°
2026-05-01 12:20 50.90258 4.48825 119 ft 1 kts 65°
2026-05-01 12:24 50.90259 4.48830 123 ft 2 kts 66°
2026-05-01 12:25 50.90276 4.48890 123 ft 10 kts 65°
2026-05-01 12:25 50.90338 4.49105 120 ft 10 kts 64°
2026-05-01 12:25 50.90369 4.49209 121 ft 11 kts 65°
2026-05-01 12:26 50.90401 4.49322 121 ft 12 kts 65°
2026-05-01 12:26 50.90302 4.49413 122 ft 12 kts 195°
2026-05-01 12:26 50.90220 4.49379 123 ft 12 kts 194°
2026-05-01 12:27 50.90138 4.49346 127 ft 12 kts 194°
2026-05-01 12:27 50.89974 4.49279 132 ft 13 kts 195°
2026-05-01 12:28 50.89809 4.49211 142 ft 12 kts 194°
2026-05-01 12:28 50.89730 4.49179 146 ft 12 kts 194°
2026-05-01 12:28 50.89588 4.49079 154 ft 11 kts 204°
2026-05-01 12:29 50.89515 4.49045 156 ft 11 kts 195°
2026-05-01 12:29 50.89444 4.49018 159 ft 10 kts 193°
2026-05-01 12:29 50.89312 4.48948 164 ft 10 kts 227°
2026-05-01 12:30 50.89241 4.48663 163 ft 18 kts 250°
2026-05-01 12:30 50.89205 4.48499 163 ft 17 kts 251°
2026-05-01 12:30 50.89170 4.48355 163 ft 17 kts 249°
2026-05-01 12:31 50.89131 4.48185 163 ft 17 kts 249°
2026-05-01 12:31 50.89094 4.48025 163 ft 17 kts 250°
2026-05-01 12:31 50.89077 4.47954 163 ft 16 kts 247°
2026-05-01 12:31 50.88983 4.47917 172 ft 15 kts 161°
2026-05-01 12:32 50.88935 4.48051 177 ft 15 kts 100°
2026-05-01 12:32 50.88941 4.48201 178 ft 0 kts 70°
2026-05-01 12:33 50.88941 4.48204 178 ft 2 kts 70°
2026-05-01 12:33 50.89007 4.48488 178 ft 63 kts 70°
2026-05-01 12:33 50.89212 4.49373 175 ft 123 kts 69°
2026-05-01 12:33 50.89556 4.50883 177 ft 175 kts 72°
2026-05-01 12:34 50.89944 4.52482 559 ft 188 kts 71°
2026-05-01 12:34 50.90363 4.54112 1297 ft 187 kts 71°
2026-05-01 12:34 50.90705 4.55254 1804 ft 193 kts 65°
2026-05-01 12:34 50.91392 4.57261 2879 ft 197 kts 64°
2026-05-01 12:35 50.92028 4.59101 3246 ft 217 kts 64°
2026-05-01 12:35 50.92666 4.60989 3455 ft 236 kts 65°
2026-05-01 12:35 50.93254 4.62800 3785 ft 243 kts 64°
2026-05-01 12:35 50.93957 4.65202 4265 ft 255 kts 76°
2026-05-01 12:36 50.94445 4.67923 4711 ft 271 kts 78°
2026-05-01 12:36 50.94968 4.70727 5677 ft 269 kts 77°
2026-05-01 12:36 50.95258 4.72284 6167 ft 270 kts 77°
2026-05-01 12:36 50.95688 4.75113 6837 ft 275 kts 90°
2026-05-01 12:37 50.95318 4.78066 7588 ft 269 kts 121°
2026-05-01 12:37 50.94179 4.80350 8402 ft 266 kts 140°
2026-05-01 12:37 50.92785 4.82182 9129 ft 270 kts 142°
2026-05-01 12:37 50.91343 4.84030 9889 ft 274 kts 142°
2026-05-01 12:38 50.89892 4.85903 10652 ft 277 kts 142°
2026-05-01 12:38 50.88238 4.87655 10875 ft 298 kts 159°
2026-05-01 12:38 50.86266 4.88401 11075 ft 318 kts 173°
2026-05-01 12:38 50.83991 4.88755 11259 ft 339 kts 174°
2026-05-01 12:39 50.81576 4.89078 11447 ft 358 kts 174°
2026-05-01 12:39 50.79046 4.89424 11873 ft 368 kts 174°
2026-05-01 12:39 50.76482 4.89802 12514 ft 371 kts 174°
2026-05-01 12:39 50.73920 4.90197 13155 ft 374 kts 173°
2026-05-01 12:40 50.71307 4.90617 13790 ft 377 kts 172°
2026-05-01 12:40 50.68792 4.91788 14363 ft 380 kts 153°
2026-05-01 12:40 50.66657 4.94236 14930 ft 384 kts 136°
2026-05-01 12:40 50.65068 4.97444 15442 ft 390 kts 120°
2026-05-01 12:41 50.64037 5.01413 16010 ft 395 kts 110°
2026-05-01 12:41 50.63235 5.05438 16563 ft 398 kts 109°
2026-05-01 12:41 50.62427 5.09622 17088 ft 401 kts 109°
2026-05-01 12:41 50.61602 5.13829 17601 ft 404 kts 109°
2026-05-01 12:42 50.60741 5.18081 18129 ft 407 kts 109°
2026-05-01 12:42 50.59862 5.22332 18623 ft 411 kts 109°
2026-05-01 12:42 50.58943 5.26609 19055 ft 413 kts 114°
2026-05-01 12:42 50.57452 5.30456 19502 ft 414 kts 132°
2026-05-01 12:43 50.55394 5.33632 19969 ft 416 kts 137°
2026-05-01 12:43 50.53280 5.36683 20383 ft 419 kts 137°
2026-05-01 12:43 50.51121 5.39781 20816 ft 422 kts 137°
2026-05-01 12:43 50.48955 5.42905 21237 ft 425 kts 137°
2026-05-01 12:44 50.46781 5.46063 21655 ft 428 kts 137°
2026-05-01 12:44 50.44599 5.49248 22044 ft 431 kts 136°
2026-05-01 12:44 50.40189 5.55703 22811 ft 437 kts 136°
2026-05-01 12:45 50.36480 5.61128 23450 ft 441 kts 136°
2026-05-01 12:45 50.34228 5.64416 23731 ft 445 kts 136°
2026-05-01 12:45 50.31210 5.68814 24148 ft 449 kts 136°
2026-05-01 12:46 50.28917 5.72150 24467 ft 450 kts 136°
2026-05-01 12:46 50.27439 5.74304 24707 ft 451 kts 135°
2026-05-01 12:46 50.25425 5.78232 24920 ft 454 kts 119°
2026-05-01 12:46 50.24249 5.82738 25373 ft 451 kts 105°
2026-05-01 12:47 50.23460 5.87484 25694 ft 452 kts 104°
2026-05-01 12:47 50.22708 5.92290 25911 ft 456 kts 103°
2026-05-01 12:47 50.21942 5.97120 26098 ft 460 kts 104°
2026-05-01 12:47 50.21146 6.01963 26408 ft 461 kts 104°
2026-05-01 12:48 50.20328 6.06809 26774 ft 461 kts 104°
2026-05-01 12:48 50.19502 6.11634 26943 ft 465 kts 105°
2026-05-01 12:48 50.18746 6.16555 27265 ft 465 kts 99°
2026-05-01 12:48 50.18406 6.21555 27645 ft 464 kts 92°
2026-05-01 12:49 50.18545 6.26585 27991 ft 463 kts 84°
2026-05-01 12:49 50.18896 6.31579 28393 ft 462 kts 83°
2026-05-01 12:49 50.19252 6.36551 28813 ft 461 kts 84°
2026-05-01 12:49 50.19593 6.41519 29196 ft 460 kts 84°
2026-05-01 12:50 50.19910 6.46421 29553 ft 460 kts 84°
2026-05-01 12:50 50.20219 6.51393 29905 ft 460 kts 84°
2026-05-01 12:50 50.20521 6.56352 30290 ft 459 kts 84°
2026-05-01 12:50 50.20821 6.61312 30580 ft 459 kts 84°
2026-05-01 12:51 50.21119 6.66277 30846 ft 459 kts 84°
2026-05-01 12:51 50.21412 6.71239 31099 ft 460 kts 84°
2026-05-01 12:51 50.21993 6.81195 31646 ft 460 kts 84°
2026-05-01 12:52 50.22179 6.86172 31900 ft 460 kts 91°
2026-05-01 12:52 50.21697 6.95999 32420 ft 460 kts 95°
2026-05-01 12:52 50.21385 7.01052 32670 ft 460 kts 95°
2026-05-01 12:53 50.20805 7.11005 33184 ft 460 kts 95°
2026-05-01 12:53 50.20530 7.16002 33420 ft 460 kts 95°
2026-05-01 12:53 50.20262 7.20944 33650 ft 460 kts 95°
2026-05-01 12:54 50.19988 7.25953 33909 ft 460 kts 95°
2026-05-01 12:54 50.19133 7.35628 34321 ft 461 kts 106°
2026-05-01 12:54 50.18162 7.40381 34543 ft 460 kts 109°
2026-05-01 12:55 50.16078 7.49809 34913 ft 461 kts 109°
2026-05-01 12:55 50.15078 7.54365 35085 ft 461 kts 109°
2026-05-01 12:56 50.13779 7.60375 35274 ft 459 kts 108°
2026-05-01 12:56 50.11768 7.69794 35305 ft 463 kts 108°
2026-05-01 12:57 50.09730 7.79325 35309 ft 463 kts 108°
2026-05-01 12:57 50.06257 7.93298 35300 ft 463 kts 121°
2026-05-01 12:58 50.02652 8.01591 35306 ft 462 kts 124°
2026-05-01 12:59 50.02055 8.02919 35310 ft 462 kts 124°
2026-05-01 13:00 49.98543 8.10790 35310 ft 462 kts 124°
2026-05-01 13:01 49.93279 8.22798 35315 ft 462 kts 123°
2026-05-01 13:02 49.87951 8.34966 35323 ft 462 kts 123°
2026-05-01 13:07 49.44168 9.21069 35325 ft 464 kts 121°
2026-05-01 13:08 49.40664 9.29416 35327 ft 464 kts 121°
2026-05-01 13:08 49.37180 9.37712 35324 ft 464 kts 121°
2026-05-01 13:09 49.33668 9.45955 35326 ft 464 kts 122°
2026-05-01 13:09 49.30152 9.54140 35340 ft 464 kts 122°
2026-05-01 13:10 49.26594 9.62392 35336 ft 464 kts 122°
2026-05-01 13:10 49.23029 9.70639 35348 ft 463 kts 122°
2026-05-01 13:11 49.19472 9.78847 35348 ft 463 kts 122°
2026-05-01 13:11 49.15900 9.87064 35345 ft 463 kts 122°
2026-05-01 13:12 49.12357 9.95188 35349 ft 462 kts 122°
2026-05-01 13:12 49.08765 10.03405 35346 ft 462 kts 122°
2026-05-01 13:13 49.05163 10.10908 35339 ft 464 kts 132°
2026-05-01 13:13 49.00599 10.17840 35350 ft 463 kts 134°
2026-05-01 13:14 48.95978 10.24677 35359 ft 463 kts 133°
2026-05-01 13:14 48.91388 10.31549 35356 ft 462 kts 133°
2026-05-01 13:15 48.86824 10.38425 35368 ft 462 kts 133°
2026-05-01 13:15 48.82253 10.45308 35367 ft 462 kts 133°
2026-05-01 13:16 48.77686 10.52161 35363 ft 462 kts 133°
2026-05-01 13:16 48.73207 10.58861 35357 ft 462 kts 133°
2026-05-01 13:17 48.64033 10.72532 35352 ft 462 kts 133°
2026-05-01 13:18 48.57270 10.82879 35346 ft 460 kts 128°
2026-05-01 13:18 48.53312 10.90212 35346 ft 459 kts 126°
2026-05-01 13:19 48.49315 10.97805 35353 ft 459 kts 126°
2026-05-01 13:20 48.43320 11.08992 35350 ft 459 kts 126°
2026-05-01 13:20 48.39287 11.16423 35346 ft 459 kts 126°
2026-05-01 13:21 48.33335 11.27342 35337 ft 459 kts 126°
2026-05-01 13:21 48.29306 11.34710 35341 ft 459 kts 126°
2026-05-01 13:22 48.25249 11.42111 35340 ft 459 kts 126°
2026-05-01 13:22 48.21205 11.49468 35341 ft 459 kts 126°
2026-05-01 13:23 48.17147 11.56830 35342 ft 458 kts 126°
2026-05-01 13:23 48.13119 11.64117 35345 ft 458 kts 126°
2026-05-01 13:24 48.09102 11.71367 35340 ft 458 kts 126°
2026-05-01 13:25 48.02998 11.82343 35330 ft 458 kts 126°
2026-05-01 13:25 47.98919 11.89655 35326 ft 458 kts 126°
2026-05-01 13:26 47.95015 11.96634 35329 ft 457 kts 126°
2026-05-01 13:26 47.90968 12.03849 35327 ft 457 kts 126°
2026-05-01 13:27 47.86884 12.11110 35327 ft 457 kts 126°
2026-05-01 13:27 47.81446 12.20749 35334 ft 456 kts 126°
2026-05-01 13:28 47.75174 12.31826 35336 ft 456 kts 126°
2026-05-01 13:29 47.67033 12.46139 35317 ft 456 kts 126°
2026-05-01 13:30 47.58890 12.58304 35319 ft 461 kts 139°
2026-05-01 13:31 47.53724 12.63947 35316 ft 463 kts 140°
2026-05-01 13:32 47.40767 12.78155 35313 ft 465 kts 139°
2026-05-01 13:33 47.28018 12.92219 35309 ft 464 kts 139°
2026-05-01 13:34 47.17689 13.03544 35305 ft 464 kts 139°
2026-05-01 13:35 47.09885 13.12065 35318 ft 466 kts 139°
2026-05-01 13:36 47.02092 13.20543 35304 ft 468 kts 139°
2026-05-01 13:36 46.94241 13.29050 35301 ft 469 kts 139°
2026-05-01 13:37 46.89079 13.34625 35315 ft 468 kts 139°
2026-05-01 13:37 46.83823 13.40289 35310 ft 469 kts 139°
2026-05-01 13:38 46.75963 13.48060 35327 ft 477 kts 152°
2026-05-01 13:39 46.69504 13.50543 35331 ft 487 kts 171°
2026-05-01 13:39 46.62693 13.50012 35327 ft 496 kts 190°
2026-05-01 13:40 46.55946 13.48324 35293 ft 486 kts 170°
2026-05-01 13:40 46.52747 13.49437 35331 ft 474 kts 150°
2026-05-01 13:40 46.50056 13.51967 35331 ft 461 kts 130°
2026-05-01 13:40 46.48005 13.55543 35346 ft 453 kts 118°
2026-05-01 13:41 46.46320 13.59286 35341 ft 454 kts 117°
2026-05-01 13:41 46.42512 13.66772 35337 ft 463 kts 126°
2026-05-01 13:42 46.37993 13.73393 35321 ft 461 kts 132°
2026-05-01 13:42 46.33457 13.79066 35034 ft 465 kts 134°
2026-05-01 13:42 46.30981 13.82040 34799 ft 464 kts 135°
2026-05-01 13:43 46.28492 13.85007 34553 ft 462 kts 135°
2026-05-01 13:43 46.26006 13.87974 34353 ft 462 kts 134°
2026-05-01 13:43 46.23524 13.90947 34072 ft 463 kts 134°
2026-05-01 13:43 46.21072 13.93893 33834 ft 464 kts 134°
2026-05-01 13:44 46.18586 13.96887 33543 ft 465 kts 134°
2026-05-01 13:44 46.16097 13.99886 33364 ft 466 kts 134°
2026-05-01 13:44 46.13609 14.02883 33345 ft 467 kts 134°
2026-05-01 13:45 46.08660 14.08833 33327 ft 466 kts 134°
2026-05-01 13:45 46.03703 14.14775 33322 ft 464 kts 134°
2026-05-01 13:46 45.98715 14.20740 33322 ft 463 kts 134°
2026-05-01 13:46 45.93753 14.26661 33328 ft 462 kts 134°
2026-05-01 13:47 45.88834 14.32518 33327 ft 463 kts 134°
2026-05-01 13:47 45.83876 14.38407 33331 ft 463 kts 134°
2026-05-01 13:48 45.78919 14.44280 33342 ft 464 kts 133°
2026-05-01 13:48 45.73935 14.50171 33339 ft 464 kts 134°
2026-05-01 13:49 45.69225 14.55725 33338 ft 465 kts 134°
2026-05-01 13:49 45.64220 14.61612 33347 ft 466 kts 133°
2026-05-01 13:50 45.59236 14.67462 33333 ft 466 kts 134°
2026-05-01 13:50 45.54222 14.73332 33369 ft 466 kts 134°
2026-05-01 13:51 45.49205 14.79187 33329 ft 462 kts 133°
2026-05-01 13:51 45.44227 14.84985 33336 ft 462 kts 133°
2026-05-01 13:52 45.39382 14.90621 33334 ft 463 kts 133°
2026-05-01 13:52 45.34485 14.96303 33323 ft 463 kts 133°
2026-05-01 13:53 45.29626 15.01926 33332 ft 463 kts 133°
2026-05-01 13:53 45.22124 15.10583 33337 ft 464 kts 133°
2026-05-01 13:54 45.17110 15.16350 33333 ft 464 kts 133°
2026-05-01 13:54 45.12096 15.22105 33333 ft 463 kts 133°
2026-05-01 13:55 45.07081 15.27846 33334 ft 463 kts 133°
2026-05-01 13:55 45.02076 15.33563 33331 ft 462 kts 133°
2026-05-01 13:56 44.97348 15.38952 33327 ft 460 kts 133°
2026-05-01 13:56 44.92372 15.44612 33326 ft 459 kts 133°
2026-05-01 13:57 44.88236 15.49306 33324 ft 458 kts 132°
2026-05-01 13:57 44.82427 15.55884 33333 ft 458 kts 133°
2026-05-01 13:58 44.77467 15.61488 33326 ft 457 kts 133°
2026-05-01 13:58 44.72505 15.67081 33330 ft 457 kts 133°
2026-05-01 13:59 44.67531 15.72674 33320 ft 458 kts 133°
2026-05-01 13:59 44.62583 15.78227 33315 ft 458 kts 133°
2026-05-01 14:00 44.57595 15.83810 33313 ft 458 kts 133°
2026-05-01 14:00 44.52613 15.89374 33309 ft 458 kts 133°
2026-05-01 14:01 44.47615 15.94943 33315 ft 459 kts 133°
2026-05-01 14:01 44.42591 16.00530 33312 ft 461 kts 133°
2026-05-01 14:02 44.37594 16.06075 33316 ft 463 kts 133°
2026-05-01 14:02 44.32534 16.11674 33295 ft 463 kts 133°
2026-05-01 14:03 44.27676 16.17038 33291 ft 463 kts 133°
2026-05-01 14:03 44.22610 16.22619 33279 ft 464 kts 133°
2026-05-01 14:04 44.17558 16.28171 33277 ft 460 kts 134°
2026-05-01 14:04 44.13383 16.32750 33282 ft 460 kts 133°
2026-05-01 14:05 44.07489 16.39207 33286 ft 462 kts 134°
2026-05-01 14:05 44.02451 16.44714 33272 ft 465 kts 134°
2026-05-01 14:06 43.97351 16.50270 33281 ft 465 kts 134°
2026-05-01 14:06 43.92250 16.55817 33250 ft 466 kts 134°
2026-05-01 14:07 43.87136 16.61367 33247 ft 467 kts 134°
2026-05-01 14:08 43.79466 16.69660 33248 ft 469 kts 135°
2026-05-01 14:08 43.74307 16.75224 33245 ft 471 kts 135°
2026-05-01 14:09 43.69128 16.80798 33238 ft 472 kts 136°
2026-05-01 14:09 43.63928 16.86382 33223 ft 474 kts 136°
2026-05-01 14:10 43.58894 16.91775 33216 ft 474 kts 137°
2026-05-01 14:10 43.53695 16.97332 33223 ft 475 kts 137°
2026-05-01 14:11 43.48472 17.02904 33213 ft 475 kts 137°
2026-05-01 14:11 43.40665 17.11207 33215 ft 474 kts 138°
2026-05-01 14:12 43.35455 17.16734 33215 ft 473 kts 138°
2026-05-01 14:12 43.30225 17.22270 33195 ft 473 kts 138°
2026-05-01 14:13 43.25889 17.26851 33162 ft 472 kts 139°
2026-05-01 14:13 43.19854 17.33209 33181 ft 468 kts 139°
2026-05-01 14:14 43.14680 17.38651 33196 ft 469 kts 139°
2026-05-01 14:14 43.09498 17.44089 33194 ft 471 kts 139°
2026-05-01 14:15 43.04284 17.49548 33176 ft 472 kts 139°
2026-05-01 14:15 42.99041 17.55026 33175 ft 475 kts 139°
2026-05-01 14:16 42.93767 17.60523 33179 ft 478 kts 139°
2026-05-01 14:16 42.88491 17.66010 33170 ft 481 kts 140°
2026-05-01 14:17 42.83152 17.71549 33174 ft 483 kts 140°
2026-05-01 14:17 42.77792 17.77098 33164 ft 483 kts 140°
2026-05-01 14:18 42.72430 17.82636 33159 ft 483 kts 140°
2026-05-01 14:18 42.67974 17.87229 33156 ft 483 kts 140°
2026-05-01 14:19 42.61782 17.93599 33154 ft 482 kts 141°
2026-05-01 14:19 42.56433 17.99087 33157 ft 481 kts 141°
2026-05-01 14:20 42.49328 18.06360 33156 ft 480 kts 141°
2026-05-01 14:21 42.43984 18.11816 33153 ft 480 kts 141°
2026-05-01 14:21 42.38640 18.17260 33152 ft 479 kts 141°
2026-05-01 14:22 42.30641 18.25387 33146 ft 479 kts 142°
2026-05-01 14:22 42.25299 18.30799 33147 ft 480 kts 142°
2026-05-01 14:23 42.19984 18.36173 33148 ft 481 kts 142°
2026-05-01 14:23 42.14680 18.41524 33146 ft 482 kts 142°
2026-05-01 14:24 42.09307 18.46933 33148 ft 482 kts 142°
2026-05-01 14:24 42.03914 18.52350 33144 ft 483 kts 142°
2026-05-01 14:25 41.98517 18.57760 33147 ft 484 kts 143°
2026-05-01 14:25 41.93107 18.63171 33143 ft 485 kts 143°
2026-05-01 14:26 41.85003 18.71254 33142 ft 485 kts 143°
2026-05-01 14:27 41.79598 18.76631 33143 ft 486 kts 143°
2026-05-01 14:27 41.74170 18.82019 33136 ft 486 kts 143°
2026-05-01 14:28 41.66012 18.90096 33128 ft 486 kts 144°
2026-05-01 14:28 41.60571 18.95469 33124 ft 486 kts 144°
2026-05-01 14:29 41.55135 19.00825 33118 ft 487 kts 144°
2026-05-01 14:30 41.44276 19.10827 33105 ft 485 kts 157°
2026-05-01 14:31 41.34799 19.15492 33101 ft 484 kts 163°
2026-05-01 14:31 41.28432 19.18499 33096 ft 485 kts 162°
2026-05-01 14:32 41.22078 19.21564 33092 ft 486 kts 162°
2026-05-01 14:32 41.15718 19.24657 33083 ft 486 kts 162°
2026-05-01 14:33 41.09368 19.27741 33080 ft 486 kts 163°
2026-05-01 14:33 41.03051 19.30800 33075 ft 486 kts 163°
2026-05-01 14:34 40.96690 19.33872 33070 ft 486 kts 163°
2026-05-01 14:34 40.90353 19.36926 33069 ft 485 kts 163°
2026-05-01 14:35 40.84002 19.39980 33065 ft 485 kts 163°
2026-05-01 14:35 40.77672 19.43018 33057 ft 484 kts 164°
2026-05-01 14:36 40.71650 19.45903 33055 ft 484 kts 164°
2026-05-01 14:36 40.65316 19.48931 33047 ft 484 kts 164°
2026-05-01 14:37 40.58987 19.51952 33047 ft 484 kts 165°
2026-05-01 14:37 40.52651 19.54965 33038 ft 484 kts 165°
2026-05-01 14:38 40.46315 19.57965 33051 ft 484 kts 165°
2026-05-01 14:38 40.39957 19.60970 33026 ft 485 kts 165°
2026-05-01 14:39 40.33640 19.63952 33027 ft 486 kts 165°
2026-05-01 14:39 40.27273 19.66953 33024 ft 486 kts 166°
2026-05-01 14:40 40.20912 19.69944 33032 ft 486 kts 166°
2026-05-01 14:40 40.14534 19.72938 33032 ft 487 kts 166°
2026-05-01 14:41 40.08158 19.75924 33039 ft 487 kts 166°
2026-05-01 14:41 40.02001 19.78803 33024 ft 487 kts 167°
2026-05-01 14:42 39.95791 19.81702 33026 ft 487 kts 167°
2026-05-01 14:42 39.89412 19.84675 33042 ft 487 kts 167°
2026-05-01 14:43 39.83061 19.87829 33039 ft 489 kts 165°
2026-05-01 14:43 39.76718 19.91077 33045 ft 489 kts 166°
2026-05-01 14:44 39.70372 19.94294 33045 ft 488 kts 166°
2026-05-01 14:44 39.60892 19.99052 33039 ft 489 kts 167°
2026-05-01 14:45 39.51391 20.03809 33046 ft 490 kts 167°
2026-05-01 14:46 39.44988 20.06795 33037 ft 482 kts 174°
2026-05-01 14:46 39.38499 20.07807 33061 ft 465 kts 187°
2026-05-01 14:46 39.35567 20.07930 32870 ft 469 kts 187°
2026-05-01 14:47 39.32297 20.08065 32595 ft 470 kts 187°
2026-05-01 14:47 39.29036 20.08221 32325 ft 467 kts 187°
2026-05-01 14:47 39.25795 20.08396 32072 ft 465 kts 187°
2026-05-01 14:48 39.19313 20.08768 31570 ft 467 kts 187°
2026-05-01 14:48 39.16089 20.08958 31320 ft 467 kts 187°
2026-05-01 14:48 39.09603 20.09341 30827 ft 467 kts 188°
2026-05-01 14:49 39.03108 20.09721 30344 ft 467 kts 188°
2026-05-01 14:49 38.96622 20.10098 29813 ft 467 kts 188°
2026-05-01 14:50 38.92318 20.10343 29426 ft 467 kts 188°
2026-05-01 14:50 38.83661 20.10788 28682 ft 469 kts 188°
2026-05-01 14:51 38.80390 20.10953 28404 ft 469 kts 188°
2026-05-01 14:51 38.73935 20.11289 27033 ft 463 kts 187°
2026-05-01 14:52 38.67543 20.11614 26268 ft 468 kts 187°
2026-05-01 14:52 38.64241 20.11769 25901 ft 476 kts 186°
2026-05-01 14:52 38.57836 20.12120 25108 ft 441 kts 186°
2026-05-01 14:53 38.54865 20.12283 24739 ft 424 kts 186°
2026-05-01 14:53 38.51941 20.12433 24352 ft 408 kts 187°
2026-05-01 14:53 38.49178 20.12568 24013 ft 398 kts 187°
2026-05-01 14:53 38.46397 20.12703 23666 ft 393 kts 186°
2026-05-01 14:54 38.43716 20.12738 23241 ft 381 kts 195°
2026-05-01 14:54 38.41201 20.12022 22841 ft 363 kts 207°
2026-05-01 14:54 38.38935 20.10746 22424 ft 349 kts 219°
2026-05-01 14:54 38.36958 20.09028 22038 ft 340 kts 224°
2026-05-01 14:55 38.35064 20.07244 21577 ft 339 kts 223°
2026-05-01 14:55 38.33103 20.05552 21044 ft 342 kts 219°
2026-05-01 14:55 38.31033 20.04010 20535 ft 345 kts 215°
2026-05-01 14:55 38.28871 20.02624 19882 ft 350 kts 212°
2026-05-01 14:56 38.26636 20.01404 19245 ft 349 kts 208°
2026-05-01 14:56 38.24357 20.00357 18615 ft 348 kts 204°
2026-05-01 14:56 38.22032 19.99480 17959 ft 348 kts 201°
2026-05-01 14:56 38.19679 19.98780 17270 ft 347 kts 197°
2026-05-01 14:57 38.17275 19.98383 16560 ft 353 kts 182°
2026-05-01 14:57 38.12703 20.00684 15301 ft 361 kts 142°
2026-05-01 14:57 38.10964 20.02852 15130 ft 347 kts 135°
2026-05-01 14:58 38.09361 20.05069 14836 ft 336 kts 134°
2026-05-01 14:58 38.07799 20.07276 14253 ft 337 kts 134°
2026-05-01 14:58 38.06237 20.09485 13697 ft 335 kts 134°
2026-05-01 14:58 38.04683 20.11670 13087 ft 333 kts 134°
2026-05-01 14:59 38.03129 20.13841 12490 ft 331 kts 134°
2026-05-01 14:59 38.01574 20.16001 11900 ft 330 kts 134°
2026-05-01 14:59 38.00034 20.18132 11321 ft 328 kts 134°
2026-05-01 14:59 37.98495 20.20255 10753 ft 326 kts 133°
2026-05-01 15:00 37.95492 20.24389 9024 ft 342 kts 133°
2026-05-01 15:00 37.93889 20.26592 8397 ft 338 kts 133°
2026-05-01 15:00 37.92325 20.28740 8129 ft 322 kts 133°
2026-05-01 15:01 37.90852 20.30761 8008 ft 303 kts 133°
2026-05-01 15:01 37.89468 20.32660 7981 ft 283 kts 133°
2026-05-01 15:01 37.88181 20.34425 7974 ft 269 kts 133°
2026-05-01 15:01 37.86926 20.36142 7988 ft 266 kts 133°
2026-05-01 15:02 37.85656 20.37880 8004 ft 270 kts 133°
2026-05-01 15:02 37.85229 20.38465 8007 ft 270 kts 133°
2026-05-01 15:02 37.83069 20.41418 7863 ft 286 kts 133°
2026-05-01 15:02 37.81711 20.43272 7612 ft 287 kts 133°
2026-05-01 15:03 37.80374 20.45099 7350 ft 279 kts 133°
2026-05-01 15:03 37.79075 20.46874 7089 ft 270 kts 134°
2026-05-01 15:03 37.77831 20.48571 6832 ft 262 kts 134°
2026-05-01 15:03 37.76596 20.50256 6578 ft 254 kts 133°
2026-05-01 15:04 37.75411 20.51871 6316 ft 247 kts 134°
2026-05-01 15:04 37.74256 20.53444 6045 ft 240 kts 134°
2026-05-01 15:04 37.73138 20.54967 5772 ft 234 kts 134°
2026-05-01 15:04 37.72041 20.56460 5512 ft 229 kts 134°
2026-05-01 15:05 37.70981 20.57901 5271 ft 225 kts 134°
2026-05-01 15:05 37.69925 20.59337 5002 ft 221 kts 134°
2026-05-01 15:05 37.68888 20.60746 4749 ft 218 kts 134°
2026-05-01 15:05 37.67851 20.62153 4490 ft 218 kts 134°
2026-05-01 15:06 37.66906 20.63436 4262 ft 219 kts 134°
2026-05-01 15:06 37.66203 20.64391 4095 ft 220 kts 134°
2026-05-01 15:06 37.64939 20.66106 3794 ft 219 kts 133°
2026-05-01 15:06 37.63907 20.67505 3582 ft 216 kts 133°
2026-05-01 15:07 37.63234 20.68418 3430 ft 213 kts 133°
2026-05-01 15:07 37.62235 20.69773 3185 ft 211 kts 133°
2026-05-01 15:07 37.61234 20.71128 3056 ft 210 kts 133°
2026-05-01 15:07 37.60240 20.72476 2997 ft 211 kts 133°
2026-05-01 15:08 37.59232 20.73841 2999 ft 213 kts 133°
2026-05-01 15:08 37.58221 20.75204 3001 ft 213 kts 133°
2026-05-01 15:08 37.57351 20.76685 2972 ft 212 kts 107°
2026-05-01 15:08 37.57149 20.78511 2999 ft 211 kts 95°
2026-05-01 15:09 37.56989 20.80335 3003 ft 206 kts 96°
2026-05-01 15:09 37.56811 20.82114 2979 ft 203 kts 97°
2026-05-01 15:09 37.56622 20.83882 2988 ft 206 kts 97°
2026-05-01 15:09 37.56422 20.85677 2997 ft 207 kts 97°
2026-05-01 15:10 37.56218 20.87479 2996 ft 206 kts 98°
2026-05-01 15:10 37.55807 20.91055 2975 ft 209 kts 98°
2026-05-01 15:10 37.55866 20.92858 2963 ft 205 kts 65°
2026-05-01 15:11 37.56775 20.94148 2979 ft 199 kts 24°
2026-05-01 15:11 37.59469 20.93927 2664 ft 203 kts 342°
2026-05-01 15:11 37.60811 20.93437 2510 ft 199 kts 342°
2026-05-01 15:12 37.62125 20.92961 2358 ft 194 kts 343°
2026-05-01 15:12 37.64687 20.92020 2011 ft 187 kts 345°
2026-05-01 15:12 37.65930 20.91614 1748 ft 179 kts 344°
2026-05-01 15:13 37.69156 20.90501 1099 ft 143 kts 345°
2026-05-01 15:14 37.70931 20.89905 880 ft 137 kts 347°
2026-05-01 15:14 37.71860 20.89608 646 ft 137 kts 346°
2026-05-01 15:14 37.73663 20.88959 174 ft 132 kts 345°
2026-05-01 15:15 37.75129 20.88414 18 ft 49 kts 343°
2026-05-01 15:15 37.75433 20.88302 21 ft 9 kts 352°
2026-05-01 15:16 37.75474 20.88366 21 ft 0 kts 103°
2026-05-01 15:18 37.75397 20.88433 21 ft 7 kts 163°
2026-05-01 15:18 37.75355 20.88461 21 ft 5 kts 120°
2026-05-01 15:19 37.75361 20.88507 22 ft 3 kts 73°
2026-05-01 15:19 37.75366 20.88531 22 ft 0 kts 73°